W8BUG Weather Reports


time (UTC)temp
C
wind
direction
speed
KPH
gust
KPH
rain 1hr
cm
rain 24hr
cm
rain mn
cm
humidity
%
barometer
mb
20260503230614 -17 65 0.0 4.8 0.00 0.00 0.00 1020.1
20260503230111 -17 66 0.0 0.0 0.00 0.00 0.00 1020.3
20260503225609 -17 65 1.6 3.2 0.00 0.00 0.00 1020.3
20260503225108 -17 65 0.0 1.6 0.00 0.00 0.00 1020.6
20260503224606 -17 66 0.0 0.0 0.00 0.00 0.00 1020.3
20260503224104 -17 86 3.2 9.7 0.00 0.00 0.00 1020.6
20260503223602 -17 67 1.6 8.0 0.00 0.00 0.00 1020.5
20260503223056 -17 69 1.6 4.8 0.00 0.00 0.00 1020.6
20260503222555 -17 69 0.0 1.6 0.00 0.00 0.00 1020.6
20260503222052 -17 80 6.4 9.7 0.00 0.00 0.00 1020.7
20260503221550 -17 67 1.6 9.7 0.00 0.00 0.00 1020.8
20260503221047 -17 74 0.0 8.0 0.00 0.00 0.00 1020.7
20260503220543 -17 65 3.2 4.8 0.00 0.00 0.00 1020.9
20260503220041 -17 65 1.6 3.2 0.00 0.00 0.00 1020.9
20260503215537 -17 83 1.6 1.6 0.00 0.00 0.00 1020.9
20260503215034 -17 65 0.0 8.0 0.00 0.00 0.00 1021.0
20260503214533 -17 65 0.0 3.2 0.00 0.00 0.00 1021.0
20260503214029 -17 65 0.0 4.8 0.00 0.00 0.00 1021.0
20260503213528 -17 65 0.0 0.0 0.00 0.00 0.00 1021.1
20260503213024 -17 65 0.0 1.6 0.00 0.00 0.00 1021.1
20260503212521 -17 64 0.0 1.6 0.00 0.00 0.00 1021.1
20260503212019 -17 80 3.2 12.9 0.00 0.00 0.00 1021.0
20260503211516 -17 71 3.2 11.3 0.00 0.00 0.00 1021.4
20260503211011 -17 86 0.0 1.6 0.00 0.00 0.00 1021.4
20260503210508 -17 72 3.2 8.0 0.00 0.00 0.00 1021.2
20260503210005 -17 66 0.0 8.0 0.00 0.00 0.00 1021.3
20260503205501 -17 67 1.6 3.2 0.00 0.00 0.00 1021.4
20260503204956 -17 74 3.2 4.8 0.00 0.00 0.00 1021.6
20260503204454 -17 78 0.0 8.0 0.00 0.00 0.00 1021.6
20260503203950 -17 65 0.0 3.2 0.00 0.00 0.00 1021.8
20260503203449 -17 66 0.0 1.6 0.00 0.00 0.00 1021.6
20260503202945 -17 73 1.6 4.8 0.00 0.00 0.00 1021.8
20260503202443 -17 69 0.0 8.0 0.00 0.00 0.00 1021.9
20260503201941 -17 86 1.6 8.0 0.00 0.00 0.00 1021.9
20260503201439 -17 65 0.0 1.6 0.00 0.00 0.00 1022.2
20260503200936 -17 76 1.6 12.9 0.00 0.00 0.00 1022.2
20260503200432 -17 66 0.0 8.0 0.00 0.00 0.00 1022.5
20260503195929 -17 81 3.2 4.8 0.00 0.00 0.00 1022.3
20260503195426 -17 79 0.0 3.2 0.00 0.00 0.00 1022.5
20260503194922 -17 84 4.8 8.0 0.00 0.00 0.00 1022.5
20260503194419 -17 65 1.6 3.2 0.00 0.00 0.00 1022.5
20260503193915 -17 66 0.0 8.0 0.00 0.00 0.00 1022.5
20260503193410 -17 67 1.6 3.2 0.00 0.00 0.00 1022.5
20260503192906 -17 67 1.6 3.2 0.00 0.00 0.00 1022.8
20260503192403 -17 86 3.2 8.0 0.00 0.00 0.00 1023.1
20260503191859 -17 65 1.6 8.0 0.00 0.00 0.00 1022.9
20260503191356 -17 84 4.8 4.8 0.00 0.00 0.00 1023.1
20260503190852 -17 86 3.2 4.8 0.00 0.00 0.00 1023.2
20260503190350 -17 66 0.0 3.2 0.00 0.00 0.00 1023.2
20260503185846 -17 68 1.6 4.8 0.00 0.00 0.00 1023.2
20260503185342 -17 80 3.2 8.0 0.00 0.00 0.00 1023.3
20260503184837 -17 65 1.6 4.8 0.00 0.00 0.00 1023.2
20260503184333 -17 72 1.6 4.8 0.00 0.00 0.00 1023.4
20260503183829 -17 67 0.0 9.7 0.00 0.00 0.00 1023.5
20260503183326 -17 74 1.6 3.2 0.00 0.00 0.00 1023.6
20260503182824 -17 68 0.0 3.2 0.00 0.00 0.00 1023.4
20260503182323 -17 86 4.8 8.0 0.00 0.00 0.00 1023.6
20260503181820 -17 67 3.2 9.7 0.00 0.00 0.00 1023.5
20260503181317 -17 65 0.0 3.2 0.00 0.00 0.00 1023.7
20260503180813 -17 83 4.8 11.3 0.00 0.00 0.00 1023.6
20260503180311 -17 72 1.6 4.8 0.00 0.00 0.00 1023.8
20260503175807 -17 69 1.6 4.8 0.00 0.00 0.00 1023.9
20260503175305 -17 65 1.6 4.8 0.00 0.00 0.00 1024.2
20260503174800 -17 66 4.8 4.8 0.00 0.00 0.00 1024.1
20260503174259 -17 67 1.6 4.8 0.00 0.00 0.00 1024.2
20260503173754 -17 65 1.6 3.2 0.00 0.00 0.00 1023.9
20260503173250 -17 78 0.0 4.8 0.00 0.00 0.00 1024.2
20260503172747 -17 64 3.2 4.8 0.00 0.00 0.00 1024.4
20260503172244 -17 86 4.8 8.0 0.00 0.00 0.00 1024.4
20260503171741 -17 67 1.6 8.0 0.00 0.00 0.00 1024.4
20260503171238 -17 86 4.8 8.0 0.00 0.00 0.00 1024.5
20260503170735 -17 64 1.6 3.2 0.00 0.00 0.00 1024.4
20260503170232 -17 86 6.4 9.7 0.00 0.00 0.00 1024.5
20260503160153 -17 65 1.6 3.2 0.00 0.00 0.00 1025.0
20260503150624 -17 83 4.8 4.8 0.00 0.00 0.00 1025.8
20260503150120 -17 64 1.6 3.2 0.00 0.00 0.00 1025.4
20260503131014 -17 64 0.0 1.6 0.00 0.00 0.00 1025.4
20260503130511 -17 64 0.0 1.6 0.00 0.00 0.00 1025.2
20260503110401 -17 64 1.6 1.6 0.00 0.00 0.00 1024.2
20260503090252 -17 64 1.6 3.2 0.00 0.00 0.00 1023.3
20260503081220 -17 64 1.6 3.2 0.00 0.00 0.00 1023.1
20260503080715 -17 64 1.6 3.2 0.00 0.00 0.00 1023.1
20260503080213 -17 64 1.6 3.2 0.00 0.00 0.00 1022.7
20260503072649 -17 65 1.6 3.2 0.00 0.00 0.00 1022.4
20260503072146 -17 65 3.2 3.2 0.00 0.00 0.00 1022.3
20260503071643 -17 64 1.6 1.6 0.00 0.00 0.00 1022.4
20260503071140 -17 64 1.6 3.2 0.00 0.00 0.00 1022.2
20260503070637 -17 64 1.6 3.2 0.00 0.00 0.00 1022.2
20260503070135 -17 66 1.6 3.2 0.00 0.00 0.00 1022.3
20260503055050 -17 67 0.0 1.6 0.00 0.00 0.00 1022.1
20260503054546 -17 64 0.0 0.0 0.00 0.00 0.00 1022.0
20260503054043 -17 64 0.0 1.6 0.00 0.00 0.00 1022.0
20260503053541 -17 64 1.6 1.6 0.00 0.00 0.00 1021.8
20260503053039 -17 64 1.6 1.6 0.00 0.00 0.00 1021.9
20260503052535 -17 64 0.0 0.0 0.00 0.00 0.00 1021.9
20260503052031 -17 65 0.0 0.0 0.00 0.00 0.00 1021.8
20260503051527 -17 64 0.0 0.0 0.00 0.00 0.00 1021.8
20260503051025 -17 64 0.0 0.0 0.00 0.00 0.00 1021.7
20260503050520 -17 64 0.0 1.6 0.00 0.00 0.00 1021.8
20260503050018 -17 64 1.6 1.6 0.00 0.00 0.00 1022.0
20260503045515 -17 65 1.6 3.2 0.00 0.00 0.00 1021.7
20260503045013 -17 64 1.6 3.2 0.00 0.00 0.00 1021.9
20260503044509 -17 64 1.6 1.6 0.00 0.00 0.00 1021.8
20260503044007 -17 64 1.6 1.6 0.00 0.00 0.00 1021.7
20260503043503 -17 65 1.6 3.2 0.00 0.00 0.00 1021.8
20260503042959 -17 64 1.6 3.2 0.00 0.00 0.00 1021.9
20260503042456 -17 65 1.6 3.2 0.00 0.00 0.00 1021.7
20260503041952 -17 64 1.6 3.2 0.00 0.00 0.00 1021.5
20260503041449 -17 65 1.6 3.2 0.00 0.00 0.00 1021.5
20260503040947 -17 64 1.6 1.6 0.00 0.00 0.00 1021.6
20260503040444 -17 64 1.6 1.6 0.00 0.00 0.00 1021.4
20260503035941 -17 64 0.0 0.0 0.00 0.00 0.00 1021.5
20260503035438 -17 64 0.0 0.0 0.00 0.00 0.00 1021.5
20260503034936 -17 66 0.0 1.6 0.00 0.00 0.00 1021.5
20260503034433 -17 64 0.0 0.0 0.00 0.00 0.00 1021.6
20260503033930 -17 64 0.0 1.6 0.00 0.00 0.00 1021.5
20260503033427 -17 64 1.6 1.6 0.00 0.00 0.00 1021.5
20260503032925 -17 64 1.6 1.6 0.00 0.00 0.00 1021.5
20260503032424 -17 64 1.6 3.2 0.00 0.00 0.00 1021.3
20260503031921 -17 64 1.6 3.2 0.00 0.00 0.00 1021.3
20260503031418 -17 64 1.6 3.2 0.00 0.00 0.00 1021.3
20260503030915 -17 64 1.6 3.2 0.00 0.00 0.00 1021.3
20260503030411 -17 64 1.6 3.2 0.00 0.00 0.00 1021.2
20260503025908 -17 64 3.2 3.2 0.00 0.00 0.00 1021.3
20260503025405 -17 64 1.6 3.2 0.00 0.00 0.00 1021.3
20260503024903 -17 64 1.6 3.2 0.00 0.00 0.00 1021.3
20260503024359 -17 64 1.6 3.2 0.00 0.00 0.00 1021.1
20260503023856 -17 64 1.6 3.2 0.00 0.00 0.00 1021.1
20260503023353 -17 64 1.6 3.2 0.00 0.00 0.00 1021.1
20260503022850 -17 64 1.6 3.2 0.00 0.00 0.00 1021.2
20260503022344 -17 64 1.6 3.2 0.00 0.00 0.00 1021.0
20260503021841 -17 64 1.6 3.2 0.00 0.00 0.00 1021.1
20260503021337 -17 64 3.2 3.2 0.00 0.00 0.00 1020.8
20260503020834 -17 64 3.2 3.2 0.00 0.00 0.00 1020.8
20260503020333 -17 66 1.6 3.2 0.00 0.00 0.00 1020.9
20260503015829 -17 64 1.6 3.2 0.00 0.00 0.00 1020.7
20260503015326 -17 66 3.2 3.2 0.00 0.00 0.00 1020.6
20260503014821 -17 65 3.2 4.8 0.00 0.00 0.00 1020.7
20260503014319 -17 64 1.6 3.2 0.00 0.00 0.00 1020.4
20260503013816 -17 64 3.2 3.2 0.00 0.00 0.00 1020.6
20260503013314 -17 64 1.6 1.6 0.00 0.00 0.00 1020.5
20260503012811 -17 64 1.6 3.2 0.00 0.00 0.00 1020.4
20260503012308 -17 64 1.6 3.2 0.00 0.00 0.00 1020.1
20260503011805 -17 64 3.2 3.2 0.00 0.00 0.00 1020.1
20260503011302 -17 64 1.6 3.2 0.00 0.00 0.00 1020.0
20260503010758 -17 65 0.0 1.6 0.00 0.00 0.00 1019.8
20260503010255 -17 64 1.6 3.2 0.00 0.00 0.00 1019.9
20260503005752 -17 64 1.6 3.2 0.00 0.00 0.00 1019.8
20260503005250 -17 64 1.6 1.6 0.00 0.00 0.00 1019.9
20260503004745 -17 65 0.0 0.0 0.00 0.00 0.00 1019.8
20260503004244 -17 65 0.0 0.0 0.00 0.00 0.00 1019.6
20260503003741 -17 64 0.0 0.0 0.00 0.00 0.00 1019.7
20260503003238 -17 64 0.0 1.6 0.00 0.00 0.00 1019.6
20260503002734 -17 64 1.6 1.6 0.00 0.00 0.00 1019.5
20260503002231 -17 65 3.2 3.2 0.00 0.00 0.00 1019.4
20260503001727 -17 64 0.0 1.6 0.00 0.00 0.00 1019.2
20260503001224 -17 64 0.0 1.6 0.00 0.00 0.00 1019.2
20260503000722 -17 64 1.6 1.6 0.00 0.00 0.00 1019.2
20260503000219 -17 64 1.6 3.2 0.00 0.00 0.00 1019.2
20260502235716 -17 64 1.6 3.2 0.00 0.00 0.00 1019.1
20260502235214 -17 64 3.2 3.2 0.00 0.00 0.00 1019.0
20260502234710 -17 64 1.6 3.2 0.00 0.00 0.00 1018.8
20260502234207 -17 64 3.2 4.8 0.00 0.00 0.00 1018.8
20260502233703 -17 64 1.6 3.2 0.00 0.00 0.00 1018.7
20260502233200 -17 64 3.2 4.8 0.00 0.00 0.00 1018.8
20260502232655 -17 77 3.2 8.0 0.00 0.00 0.00 1018.8
20260502232153 -17 66 3.2 4.8 0.00 0.00 0.00 1018.7
20260502231649 -17 65 3.2 4.8 0.00 0.00 0.00 1018.9
20260502231148 -17 70 3.2 8.0 0.00 0.00 0.00 1018.7